This is the latest recevied weather packets stored in our database for station/object KM4NDN. If no packets are shown the sender has not sent any weather packets the latest 10 day(s).
| Time | Temp. | Humidity | Pressure | Rain* | Wind** | Luminosity | Snow |
|---|---|---|---|---|---|---|---|
| 1777754834 | 8.33° C | 51% | 1015.1 hPa | 0 mm | - | 290 W/m² | - |
| 1777754531 | 7.78° C | 54% | 1015 hPa | 0 mm | - | 395 W/m² | - |
| 1777754228 | 7.78° C | 54% | 1015.3 hPa | 0 mm | - | 376 W/m² | - |
| 1777753926 | 7.22° C | 55% | 1015.1 hPa | 0 mm | - | 323 W/m² | - |
| 1777753620 | 7.22° C | 53% | 1015.2 hPa | 0 mm | - | 294 W/m² | - |
| 1777753319 | 7.22° C | 54% | 1015.4 hPa | 0 mm | - | 240 W/m² | - |
| 1777753016 | 7.78° C | 53% | 1015.3 hPa | 0 mm | - | 197 W/m² | - |
| 1777752712 | 7.78° C | 56% | 1015.3 hPa | 0 mm | - | 204 W/m² | - |
| 1777752408 | 7.78° C | 52% | 1015.4 hPa | 0 mm | - | 288 W/m² | - |
| 1777752104 | 7.78° C | 54% | 1015.4 hPa | 0 mm | - | 301 W/m² | - |
| 1777751803 | 7.78° C | 56% | 1015.4 hPa | 0 mm | - | 293 W/m² | - |
| 1777751499 | 7.78° C | 53% | 1015.8 hPa | 0 mm | - | 243 W/m² | - |
| 1777751196 | 7.22° C | 52% | 1015.5 hPa | 0 mm | - | 242 W/m² | - |
| 1777750892 | 7.78° C | 53% | 1015.7 hPa | 0 mm | - | 285 W/m² | - |
| 1777750589 | 7.78° C | 52% | 1015.7 hPa | 0 mm | - | 337 W/m² | - |
| 1777750286 | 8.33° C | 55% | 1015.4 hPa | 0 mm | - | 407 W/m² | - |
| 1777749981 | 7.78° C | 56% | 1015.7 hPa | 0 mm | - | 407 W/m² | - |
| 1777749679 | 7.78° C | 57% | 1015.8 hPa | 0 mm | - | 861 W/m² | - |
| 1777749376 | 7.78° C | 56% | 1015.9 hPa | 0 mm | - | 1011 W/m² | - |
| 1777749073 | 7.22° C | 62% | 1016.1 hPa | 0 mm | - | 456 W/m² | - |
| 1777748771 | 7.22° C | 60% | 1015.9 hPa | 0 mm | - | 415 W/m² | - |
| 1777748468 | 7.22° C | 58% | 1015.8 hPa | 0 mm | - | 390 W/m² | - |
| 1777748162 | 6.67° C | 60% | 1016.2 hPa | 0 mm | - | 464 W/m² | - |
| 1777747860 | 6.11° C | 59% | 1016.1 hPa | 0 mm | - | 336 W/m² | - |
| 1777747556 | 6.11° C | 59% | 1016.2 hPa | 0 mm | - | 162 W/m² | - |
* Rain latest hour (hover to see other rain measurements)
** Current wind speed in m/s (hover to see current wind gust speed)